Time,TemperatureF,DewpointF,PressureIn,WindDirection,WindDirectionDegrees,WindSpeedMPH,WindSpeedGustMPH,Humidity,HourlyPrecipIn,Conditions,Clouds,dailyrainin,SoftwareType,DateUTC
2013-03-12 00:02:00,52.0,49.0,30.18,East,90,0.0,0.0,89,0.00,,,0.03,,2013-03-12 07:02:00,
2013-03-12 00:12:00,52.0,49.0,30.18,East,90,0.0,0.0,89,0.00,,,0.03,,2013-03-12 07:12:00,
2013-03-12 00:21:00,52.0,49.0,30.18,ESE,112,0.0,0.0,89,0.00,,,0.03,,2013-03-12 07:21:00,
2013-03-12 00:32:00,51.0,48.0,30.16,East,89,0.0,0.0,89,0.00,,,0.03,,2013-03-12 07:32:00,
2013-03-12 00:42:00,51.0,48.0,30.16,East,89,0.0,0.0,89,0.00,,,0.03,,2013-03-12 07:42:00,
2013-03-12 00:52:00,51.0,48.0,30.15,ESE,117,0.0,0.0,89,0.00,,,0.03,,2013-03-12 07:52:00,
2013-03-12 01:02:00,50.0,47.0,30.15,ESE,117,0.0,0.0,89,0.00,,,0.03,,2013-03-12 08:02:00,
2013-03-12 01:12:00,50.0,47.0,30.15,ESE,117,0.0,0.0,89,0.00,,,0.03,,2013-03-12 08:12:00,
2013-03-12 01:22:00,50.0,47.0,30.15,ESE,117,0.0,0.0,89,0.00,,,0.03,,2013-03-12 08:22:00,
2013-03-12 01:32:00,50.0,47.0,30.14,East,96,0.0,0.0,90,0.00,,,0.03,,2013-03-12 08:32:00,
2013-03-12 01:42:00,50.0,47.0,30.14,East,96,0.0,0.0,90,0.00,,,0.03,,2013-03-12 08:42:00,
2013-03-12 01:52:00,50.0,47.0,30.14,SE,139,0.0,0.0,90,0.00,,,0.03,,2013-03-12 08:52:00,
2013-03-12 02:02:00,50.0,47.0,30.14,SE,145,0.0,0.0,90,0.00,,,0.03,,2013-03-12 09:02:00,
2013-03-12 02:11:00,50.0,47.0,30.14,SE,145,0.0,0.0,90,0.00,,,0.03,,2013-03-12 09:11:00,
2013-03-12 02:22:00,49.0,46.0,30.13,SE,145,0.0,0.0,90,0.00,,,0.03,,2013-03-12 09:22:00,
2013-03-12 02:32:00,49.0,46.0,30.14,SE,145,0.0,0.0,90,0.00,,,0.03,,2013-03-12 09:32:00,
2013-03-12 02:42:00,49.0,46.0,30.14,SE,145,0.0,0.0,90,0.00,,,0.03,,2013-03-12 09:42:00,
2013-03-12 02:52:00,49.0,46.0,30.14,SE,145,0.0,0.0,90,0.00,,,0.03,,2013-03-12 09:52:00,
2013-03-12 03:02:00,48.0,45.0,30.13,SE,145,0.0,0.0,90,0.00,,,0.03,,2013-03-12 10:02:00,
2013-03-12 03:11:00,48.0,45.0,30.13,SE,145,0.0,0.0,90,0.00,,,0.03,,2013-03-12 10:11:00,
2013-03-12 03:22:00,48.0,45.0,30.13,SE,145,0.0,0.0,90,0.00,,,0.03,,2013-03-12 10:22:00,
2013-03-12 03:32:00,47.0,44.0,30.13,SE,145,0.0,0.0,90,0.00,,,0.03,,2013-03-12 10:32:00,
2013-03-12 03:42:00,47.0,44.0,30.13,SE,145,0.0,0.0,90,0.00,,,0.03,,2013-03-12 10:42:00,
2013-03-12 03:52:00,47.0,44.0,30.13,SE,145,0.0,0.0,90,0.00,,,0.03,,2013-03-12 10:52:00,
2013-03-12 04:02:00,47.0,44.0,30.14,SE,145,0.0,0.0,90,0.00,,,0.03,,2013-03-12 11:02:00,
2013-03-12 04:12:00,47.0,44.0,30.14,SE,145,0.0,0.0,90,0.00,,,0.03,,2013-03-12 11:12:00,
2013-03-12 04:22:00,47.0,44.0,30.14,SE,145,0.0,0.0,90,0.00,,,0.03,,2013-03-12 11:22:00,
2013-03-12 04:32:00,47.0,44.0,30.12,SE,145,0.0,0.0,90,0.00,,,0.03,,2013-03-12 11:32:00,
2013-03-12 04:42:00,47.0,44.0,30.12,SE,145,0.0,0.0,90,0.00,,,0.03,,2013-03-12 11:42:00,
2013-03-12 04:52:00,47.0,44.0,30.12,SE,142,0.0,0.0,90,0.00,,,0.03,,2013-03-12 11:52:00,
2013-03-12 05:02:00,47.0,45.0,30.12,ESE,122,0.0,0.0,91,0.00,,,0.03,,2013-03-12 12:02:00,
2013-03-12 05:12:00,47.0,45.0,30.12,ESE,122,0.0,0.0,91,0.00,,,0.03,,2013-03-12 12:12:00,
2013-03-12 05:22:00,47.0,45.0,30.11,ESE,119,0.0,0.0,91,0.00,,,0.03,,2013-03-12 12:22:00,
2013-03-12 05:32:00,47.0,45.0,30.12,ESE,108,0.0,0.0,91,0.00,,,0.03,,2013-03-12 12:32:00,
2013-03-12 05:42:00,47.0,45.0,30.12,ESE,108,0.0,0.0,91,0.00,,,0.03,,2013-03-12 12:42:00,
2013-03-12 05:52:00,47.0,45.0,30.12,ESE,113,0.0,0.0,91,0.00,,,0.03,,2013-03-12 12:52:00,
2013-03-12 06:02:00,47.0,45.0,30.12,ESE,113,0.0,0.0,91,0.00,,,0.03,,2013-03-12 13:02:00,
2013-03-12 06:11:00,47.0,45.0,30.12,ESE,113,0.0,0.0,91,0.00,,,0.03,,2013-03-12 13:11:00,
2013-03-12 06:21:00,47.0,45.0,30.12,ESE,122,0.0,0.0,91,0.00,,,0.03,,2013-03-12 13:21:00,
2013-03-12 06:32:00,47.0,44.0,30.12,SE,127,0.0,0.0,90,0.00,,,0.03,,2013-03-12 13:32:00,
2013-03-12 06:42:00,47.0,44.0,30.12,SE,127,0.0,0.0,90,0.00,,,0.03,,2013-03-12 13:42:00,
2013-03-12 06:52:00,47.0,44.0,30.13,ESE,113,0.0,0.0,90,0.00,,,0.03,,2013-03-12 13:52:00,
2013-03-12 07:02:00,47.0,44.0,30.12,ESE,103,0.0,0.0,90,0.00,,,0.03,,2013-03-12 14:02:00,
2013-03-12 07:11:00,47.0,44.0,30.12,ESE,103,0.0,0.0,90,0.00,,,0.03,,2013-03-12 14:11:00,
2013-03-12 07:21:00,47.0,44.0,30.12,ESE,103,0.0,0.0,90,0.00,,,0.03,,2013-03-12 14:21:00,
2013-03-12 07:32:00,47.0,44.0,30.13,SE,137,0.0,0.0,90,0.00,,,0.03,,2013-03-12 14:32:00,
2013-03-12 07:42:00,47.0,44.0,30.13,SE,137,0.0,0.0,90,0.00,,,0.03,,2013-03-12 14:42:00,
2013-03-12 07:53:00,47.0,44.0,30.12,SE,137,0.0,0.0,90,0.00,,,0.03,,2013-03-12 14:53:00,
2013-03-12 08:02:00,47.0,44.0,30.12,SE,137,0.0,0.0,90,0.00,,,0.02,,2013-03-12 15:02:00,
2013-03-12 08:12:00,47.0,44.0,30.12,SE,137,0.0,0.0,90,0.00,,,0.02,,2013-03-12 15:12:00,
2013-03-12 08:22:00,47.0,44.0,30.12,SE,137,0.0,0.0,90,0.00,,,0.02,,2013-03-12 15:22:00,
2013-03-12 08:32:00,47.0,44.0,30.12,SE,138,0.0,0.0,90,0.00,,,0.02,,2013-03-12 15:32:00,
2013-03-12 08:41:00,47.0,44.0,30.12,SE,138,0.0,0.0,90,0.00,,,0.02,,2013-03-12 15:41:00,
2013-03-12 08:53:00,47.0,44.0,30.13,SE,138,0.0,0.0,90,0.00,,,0.02,,2013-03-12 15:53:00,
2013-03-12 09:02:00,47.0,44.0,30.13,SE,138,0.0,0.0,90,0.00,,,0.02,,2013-03-12 16:02:00,
2013-03-12 09:12:00,47.0,44.0,30.13,SE,138,0.0,0.0,90,0.00,,,0.02,,2013-03-12 16:12:00,
2013-03-12 09:22:00,47.0,44.0,30.14,SE,138,0.0,0.0,90,0.00,,,0.02,,2013-03-12 16:22:00,
2013-03-12 09:32:00,48.0,45.0,30.14,SE,138,0.0,0.0,90,0.00,,,0.02,,2013-03-12 16:32:00,
2013-03-12 09:42:00,48.0,45.0,30.14,SE,138,0.0,0.0,90,0.00,,,0.02,,2013-03-12 16:42:00,
2013-03-12 09:52:00,48.0,45.0,30.14,SE,137,0.0,0.0,90,0.00,,,0.02,,2013-03-12 16:52:00,
2013-03-12 10:02:00,48.0,45.0,30.14,SE,131,0.0,0.0,89,0.00,,,0.01,,2013-03-12 17:02:00,
2013-03-12 10:12:00,48.0,45.0,30.14,SE,131,0.0,0.0,89,0.00,,,0.01,,2013-03-12 17:12:00,
2013-03-12 10:22:00,48.0,45.0,30.14,SE,131,0.0,0.0,89,0.00,,,0.01,,2013-03-12 17:22:00,
2013-03-12 10:33:00,49.0,46.0,30.14,SSW,208,0.0,0.0,89,0.00,,,0.01,,2013-03-12 17:33:00,
2013-03-12 10:42:00,49.0,46.0,30.14,SSW,208,0.0,0.0,89,0.00,,,0.01,,2013-03-12 17:42:00,
2013-03-12 10:53:00,49.0,46.0,30.15,SW,224,0.0,0.0,89,0.00,,,0.01,,2013-03-12 17:53:00,
2013-03-12 11:02:00,49.0,46.0,30.15,South,181,0.0,0.0,88,0.00,,,0.01,,2013-03-12 18:02:00,
2013-03-12 11:12:00,50.0,47.0,30.15,South,182,0.0,0.0,88,0.00,,,0.01,,2013-03-12 18:12:00,
2013-03-12 11:22:00,50.0,47.0,30.15,South,182,0.0,0.0,88,0.00,,,0.01,,2013-03-12 18:22:00,
2013-03-12 11:32:00,50.0,47.0,30.15,South,186,0.0,0.0,88,0.00,,,0.01,,2013-03-12 18:32:00,
2013-03-12 11:42:00,50.0,47.0,30.15,South,186,0.0,0.0,88,0.00,,,0.01,,2013-03-12 18:42:00,
2013-03-12 11:53:00,50.0,47.0,30.15,South,186,0.0,0.0,88,0.00,,,0.01,,2013-03-12 18:53:00,
2013-03-12 12:03:00,50.0,46.0,30.15,South,188,0.0,0.0,87,0.00,,,0.01,,2013-03-12 19:03:00,
2013-03-12 12:12:00,50.0,46.0,30.15,South,188,0.0,0.0,87,0.00,,,0.01,,2013-03-12 19:12:00,
2013-03-12 12:22:00,50.0,46.0,30.15,South,188,0.0,0.0,87,0.00,,,0.01,,2013-03-12 19:22:00,
2013-03-12 12:32:00,50.0,46.0,30.16,South,188,0.0,0.0,87,0.00,,,0.01,,2013-03-12 19:32:00,
2013-03-12 12:43:00,50.0,46.0,30.16,South,188,0.0,0.0,87,0.00,,,0.01,,2013-03-12 19:43:00,
2013-03-12 12:52:00,51.0,47.0,30.15,South,188,0.0,0.0,87,0.00,,,0.01,,2013-03-12 19:52:00,
2013-03-12 13:02:00,51.0,47.0,30.15,South,188,0.0,0.0,86,0.00,,,0.01,,2013-03-12 20:02:00,
2013-03-12 13:11:00,51.0,47.0,30.15,South,188,0.0,0.0,86,0.00,,,0.01,,2013-03-12 20:11:00,
2013-03-12 13:22:00,52.0,48.0,30.14,South,188,0.0,0.0,85,0.00,,,0.01,,2013-03-12 20:22:00,
2013-03-12 13:32:00,53.0,48.0,30.14,South,188,0.0,0.0,84,0.00,,,0.01,,2013-03-12 20:32:00,
2013-03-12 13:42:00,53.0,48.0,30.14,South,188,0.0,0.0,84,0.00,,,0.01,,2013-03-12 20:42:00,
2013-03-12 13:52:00,53.0,48.0,30.13,South,188,0.0,0.0,83,0.00,,,0.01,,2013-03-12 20:52:00,
2013-03-12 14:02:00,54.0,48.0,30.13,South,191,0.0,0.0,81,0.00,,,0.01,,2013-03-12 21:02:00,
2013-03-12 14:12:00,54.0,48.0,30.13,South,191,0.0,0.0,81,0.00,,,0.01,,2013-03-12 21:12:00,
2013-03-12 14:22:00,55.0,49.0,30.13,South,188,0.0,0.0,79,0.00,,,0.01,,2013-03-12 21:22:00,
2013-03-12 14:32:00,56.0,48.0,30.14,SW,217,0.0,0.0,75,0.00,,,0.01,,2013-03-12 21:32:00,
2013-03-12 14:42:00,56.0,48.0,30.14,SW,217,0.0,0.0,75,0.00,,,0.01,,2013-03-12 21:42:00,
2013-03-12 14:52:00,56.0,47.0,30.14,WSW,245,0.0,0.0,73,0.00,,,0.01,,2013-03-12 21:52:00,
2013-03-12 15:02:00,57.0,48.0,30.12,South,182,0.0,0.0,73,0.00,,,0.01,,2013-03-12 22:02:00,
2013-03-12 15:12:00,57.0,48.0,30.12,South,182,0.0,0.0,73,0.00,,,0.01,,2013-03-12 22:12:00,
2013-03-12 15:22:00,57.0,48.0,30.11,SSW,205,0.0,0.0,72,0.00,,,0.01,,2013-03-12 22:22:00,
2013-03-12 15:32:00,58.0,47.0,30.11,West,281,0.0,0.0,67,0.00,,,0.01,,2013-03-12 22:32:00,
2013-03-12 15:42:00,58.0,47.0,30.11,West,281,0.0,0.0,67,0.00,,,0.01,,2013-03-12 22:42:00,
2013-03-12 15:52:00,58.0,48.0,30.12,SSE,160,0.0,0.0,69,0.00,,,0.01,,2013-03-12 22:52:00,
2013-03-12 16:02:00,58.0,48.0,30.12,SW,232,0.0,0.0,69,0.00,,,0.01,,2013-03-12 23:02:00,
2013-03-12 16:12:00,58.0,48.0,30.12,SW,232,0.0,0.0,69,0.00,,,0.01,,2013-03-12 23:12:00,
2013-03-12 16:22:00,58.0,48.0,30.12,SW,232,0.0,0.0,69,0.00,,,0.01,,2013-03-12 23:22:00,
2013-03-12 16:34:00,59.0,48.0,30.11,SW,227,0.0,0.0,67,0.00,,,0.01,,2013-03-12 23:34:00,
2013-03-12 16:42:00,59.0,48.0,30.11,SW,227,0.0,0.0,67,0.00,,,0.01,,2013-03-12 23:42:00,
2013-03-12 16:52:00,59.0,47.0,30.10,SW,214,0.0,0.0,65,0.00,,,0.00,,2013-03-12 23:52:00,
2013-03-12 17:02:00,60.0,48.0,30.10,SW,224,0.0,0.0,64,0.00,,,0.00,,2013-03-13 00:02:00,
2013-03-12 17:12:00,60.0,48.0,30.10,SW,224,0.0,0.0,64,0.00,,,0.00,,2013-03-13 00:12:00,
2013-03-12 17:22:00,59.0,46.0,30.10,WSW,241,0.0,0.0,63,0.00,,,0.00,,2013-03-13 00:22:00,
2013-03-12 17:32:00,59.0,46.0,30.10,SW,232,0.0,0.0,62,0.00,,,0.00,,2013-03-13 00:32:00,
2013-03-12 17:41:00,59.0,46.0,30.10,SW,232,0.0,0.0,62,0.00,,,0.00,,2013-03-13 00:41:00,
2013-03-12 17:52:00,59.0,46.0,30.10,SW,232,0.0,0.0,62,0.00,,,0.00,,2013-03-13 00:52:00,
2013-03-12 18:02:00,59.0,47.0,30.10,West,281,0.0,0.0,64,0.00,,,0.00,,2013-03-13 01:02:00,
2013-03-12 18:12:00,59.0,47.0,30.10,West,281,0.0,0.0,64,0.00,,,0.00,,2013-03-13 01:12:00,
2013-03-12 18:22:00,59.0,47.0,30.09,West,260,0.0,0.0,64,0.00,,,0.00,,2013-03-13 01:22:00,
2013-03-12 18:32:00,58.0,47.0,30.09,WNW,293,0.0,0.0,66,0.00,,,0.00,,2013-03-13 01:32:00,
2013-03-12 18:42:00,58.0,47.0,30.09,WNW,293,0.0,0.0,66,0.00,,,0.00,,2013-03-13 01:42:00,
2013-03-12 18:52:00,58.0,47.0,30.09,WNW,297,0.0,0.0,67,0.00,,,0.00,,2013-03-13 01:52:00,
2013-03-12 19:02:00,57.0,47.0,30.10,WNW,297,0.0,0.0,69,0.00,,,0.00,,2013-03-13 02:02:00,
2013-03-12 19:11:00,57.0,47.0,30.10,WNW,297,0.0,0.0,69,0.00,,,0.00,,2013-03-13 02:11:00,
2013-03-12 19:21:00,57.0,47.0,30.10,WNW,297,0.0,0.0,69,0.00,,,0.00,,2013-03-13 02:21:00,
2013-03-12 19:32:00,57.0,48.0,30.10,WNW,297,0.0,0.0,71,0.00,,,0.00,,2013-03-13 02:32:00,
2013-03-12 19:42:00,57.0,48.0,30.10,WNW,297,0.0,0.0,71,0.00,,,0.00,,2013-03-13 02:42:00,
2013-03-12 19:52:00,57.0,48.0,30.10,WNW,297,0.0,0.0,71,0.00,,,0.00,,2013-03-13 02:52:00,
2013-03-12 20:01:00,56.0,47.0,30.10,WNW,297,0.0,0.0,72,0.00,,,0.00,,2013-03-13 03:01:00,
2013-03-12 20:12:00,56.0,47.0,30.10,WNW,297,0.0,0.0,72,0.00,,,0.00,,2013-03-13 03:12:00,
2013-03-12 20:22:00,55.0,47.0,30.10,WNW,297,0.0,0.0,75,0.00,,,0.00,,2013-03-13 03:22:00,
2013-03-12 20:32:00,54.0,47.0,30.10,North,10,0.0,0.0,77,0.00,,,0.00,,2013-03-13 03:32:00,
2013-03-12 20:42:00,54.0,47.0,30.10,North,10,0.0,0.0,77,0.00,,,0.00,,2013-03-13 03:42:00,
2013-03-12 20:51:00,54.0,47.0,30.10,North,10,0.0,0.0,77,0.00,,,0.00,,2013-03-13 03:51:00,
2013-03-12 21:02:00,54.0,47.0,30.10,North,10,0.0,0.0,77,0.00,,,0.00,,2013-03-13 04:02:00,
2013-03-12 21:12:00,54.0,47.0,30.10,North,10,0.0,0.0,77,0.00,,,0.00,,2013-03-13 04:12:00,
2013-03-12 21:22:00,54.0,48.0,30.13,NW,311,0.0,0.0,80,0.00,,,0.00,,2013-03-13 04:22:00,
2013-03-12 21:32:00,54.0,48.0,30.13,NW,311,0.0,0.0,81,0.00,,,0.00,,2013-03-13 04:32:00,
2013-03-12 21:42:00,54.0,48.0,30.13,NW,311,0.0,0.0,81,0.00,,,0.00,,2013-03-13 04:42:00,
2013-03-12 21:52:00,54.0,47.0,30.13,NW,322,0.0,0.0,77,0.00,,,0.00,,2013-03-13 04:52:00,
2013-03-12 22:02:00,54.0,47.0,30.12,NW,322,0.0,0.0,77,0.00,,,0.00,,2013-03-13 05:02:00,
2013-03-12 22:12:00,54.0,47.0,30.12,NW,322,0.0,0.0,77,0.00,,,0.00,,2013-03-13 05:12:00,
2013-03-12 22:22:00,53.0,46.0,30.12,NW,322,0.0,0.0,77,0.00,,,0.00,,2013-03-13 05:22:00,
2013-03-12 22:32:00,53.0,46.0,30.13,NW,322,0.0,0.0,77,0.00,,,0.00,,2013-03-13 05:32:00,
2013-03-12 22:42:00,53.0,46.0,30.13,NW,322,0.0,0.0,77,0.00,,,0.00,,2013-03-13 05:42:00,
2013-03-12 22:51:00,53.0,46.0,30.13,NW,322,0.0,0.0,77,0.00,,,0.00,,2013-03-13 05:51:00,
2013-03-12 23:02:00,52.0,46.0,30.13,NW,322,0.0,0.0,79,0.00,,,0.00,,2013-03-13 06:02:00,
2013-03-12 23:12:00,52.0,46.0,30.13,NW,322,0.0,0.0,79,0.00,,,0.00,,2013-03-13 06:12:00,
2013-03-12 23:22:00,51.0,45.0,30.14,NW,322,0.0,0.0,80,0.00,,,0.00,,2013-03-13 06:22:00,
2013-03-12 23:32:00,51.0,45.0,30.13,NW,322,0.0,0.0,81,0.00,,,0.00,,2013-03-13 06:32:00,
2013-03-12 23:42:00,51.0,45.0,30.13,NW,322,0.0,0.0,81,0.00,,,0.00,,2013-03-13 06:42:00,
2013-03-12 23:52:00,51.0,45.0,30.14,NW,322,0.0,0.0,81,0.00,,,0.00,,2013-03-13 06:52:00,